• In Italy
  • List of Countries
  • For 7 days
  • Water Temperature
  • Satellite Maps
  • Weather Map
  • Weather Widgets
  • user-avatar
    Login

    Hourly Weather Elymbaevo

    Today, 27 May, Sunday

    Time Temperature Precipitation Wind Pressure Humidity
    00:00 +7°C° 0 mm 4 mps 761 mmHg 59%
    01:00 +7°C° 0 mm 4 mps 760 mmHg 60%
    02:00 +7°C° 0 mm 4 mps 760 mmHg 61%
    03:00 +7°C° 0 mm 5 mps 759 mmHg 62%
    04:00 +8°C° 0 mm 5 mps 759 mmHg 64%
    05:00 +9°C° 0 mm 6 mps 758 mmHg 65%
    06:00 +10°C° 0 mm 6 mps 758 mmHg 67%
    07:00 +12°C° 0 mm 7 mps 757 mmHg 65%
    08:00 +15°C° 0 mm 7 mps 756 mmHg 62%
    09:00 +17°C° 0 mm 7 mps 756 mmHg 60%
    10:00 +18°C° 0 mm 8 mps 755 mmHg 56%
    11:00 +20°C° 0 mm 8 mps 754 mmHg 53%
    12:00 +22°C° 0 mm 9 mps 753 mmHg 49%
    13:00 +22°C° 0.1 mm 9 mps 753 mmHg 49%
    14:00 +21°C° 0.1 mm 9 mps 752 mmHg 49%
    15:00 +21°C° 0.1 mm 9 mps 752 mmHg 50%
    16:00 +18°C° 1.3 mm 7 mps 751 mmHg 61%
    17:00 +16°C° 1.3 mm 6 mps 751 mmHg 73%
    18:00 +13°C° 1.3 mm 5 mps 750 mmHg 84%
    19:00 +12°C° 1.7 mm 5 mps 750 mmHg 87%
    20:00 +11°C° 1.7 mm 4 mps 750 mmHg 90%
    21:00 +10°C° 1.7 mm 4 mps 750 mmHg 94%
    22:00 +10°C° 0.3 mm 4 mps 750 mmHg 91%
    23:00 +8°C° 0.3 mm 4 mps 751 mmHg 88%

    Tomorrow, 28 May, Monday

    Time Temperature Precipitation Wind Pressure Humidity
    00:00 +8°C° 0.3 mm 4 mps 751 mmHg 86%
    01:00 +7°C° 0 mm 4 mps 751 mmHg 86%
    02:00 +6°C° 0 mm 4 mps 752 mmHg 86%
    03:00 +5°C° 0 mm 5 mps 753 mmHg 86%
    04:00 +5°C° 0 mm 5 mps 753 mmHg 82%
    05:00 +4°C° 0 mm 6 mps 754 mmHg 78%
    06:00 +5°C° 0 mm 7 mps 754 mmHg 73%
    07:00 +5°C° 0 mm 7 mps 754 mmHg 66%
    08:00 +6°C° 0 mm 7 mps 755 mmHg 58%
    09:00 +7°C° 0 mm 8 mps 755 mmHg 51%
    10:00 +8°C° 0 mm 7 mps 755 mmHg 50%
    11:00 +8°C° 0 mm 7 mps 756 mmHg 48%
    12:00 +9°C° 0 mm 7 mps 756 mmHg 47%
    13:00 +9°C° 0 mm 7 mps 756 mmHg 48%
    14:00 +9°C° 0 mm 7 mps 756 mmHg 48%
    15:00 +9°C° 0 mm 7 mps 757 mmHg 48%
    16:00 +8°C° 0 mm 6 mps 757 mmHg 50%
    17:00 +8°C° 0 mm 5 mps 757 mmHg 52%
    18:00 +8°C° 0 mm 4 mps 757 mmHg 53%
    19:00 +7°C° 0 mm 4 mps 757 mmHg 57%
    20:00 +7°C° 0 mm 3 mps 757 mmHg 61%
    21:00 +5°C° 0 mm 2 mps 758 mmHg 65%
    22:00 +5°C° 0 mm 2 mps 758 mmHg 66%
    23:00 +4°C° 0 mm 2 mps 758 mmHg 67%

    Day after tomorrow, 29 May, Tuesday

    Time Temperature Precipitation Wind Pressure Humidity
    00:00 +3°C° 0 mm 3 mps 758 mmHg 68%
    01:00 +3°C° 0 mm 3 mps 758 mmHg 68%
    02:00 +3°C° 0 mm 3 mps 757 mmHg 68%
    03:00 +3°C° 0 mm 3 mps 757 mmHg 67%
    04:00 +4°C° 0.2 mm 3 mps 757 mmHg 71%
    05:00 +4°C° 0.2 mm 3 mps 756 mmHg 75%
    06:00 +5°C° 0.2 mm 4 mps 756 mmHg 79%
    07:00 +7°C° 0.1 mm 4 mps 755 mmHg 76%
    08:00 +9°C° 0.1 mm 5 mps 755 mmHg 73%
    09:00 +11°C° 0.1 mm 6 mps 754 mmHg 69%
    10:00 +13°C° 0 mm 6 mps 754 mmHg 68%
    11:00 +13°C° 0 mm 6 mps 753 mmHg 66%
    12:00 +14°C° 0 mm 6 mps 753 mmHg 64%
    13:00 +15°C° 0.3 mm 6 mps 752 mmHg 65%
    14:00 +15°C° 0.3 mm 6 mps 752 mmHg 65%
    15:00 +16°C° 0.3 mm 6 mps 752 mmHg 66%
    16:00 +15°C° 0.3 mm 5 mps 752 mmHg 69%
    17:00 +15°C° 0.3 mm 4 mps 752 mmHg 72%
    18:00 +16°C° 0.3 mm 3 mps 751 mmHg 75%
    19:00 +13°C° 0.1 mm 3 mps 751 mmHg 80%
    20:00 +12°C° 0.1 mm 3 mps 751 mmHg 85%
    21:00 +12°C° 0.1 mm 2 mps 751 mmHg 90%
    22:00 +12°C° 0.1 mm 2 mps 751 mmHg 91%
    23:00 +12°C° 0.1 mm 2 mps 750 mmHg 92%

    30 May, Wednesday

    Time Temperature Precipitation Wind Pressure Humidity
    00:00 +12°C° 0.1 mm 2 mps 750 mmHg 94%
    01:00 +11°C° 0.2 mm 3 mps 749 mmHg 93%
    02:00 +11°C° 0.2 mm 3 mps 748 mmHg 92%
    03:00 +11°C° 0.2 mm 3 mps 748 mmHg 92%
    04:00 +12°C° 0 mm 4 mps 747 mmHg 89%
    05:00 +12°C° 0 mm 5 mps 746 mmHg 85%
    06:00 +13°C° 0 mm 5 mps 746 mmHg 82%
    07:00 +15°C° 0 mm 5 mps 745 mmHg 76%
    08:00 +16°C° 0 mm 6 mps 744 mmHg 70%
    09:00 +19°C° 0 mm 6 mps 744 mmHg 63%
    10:00 +20°C° 0 mm 7 mps 743 mmHg 58%
    11:00 +21°C° 0 mm 7 mps 742 mmHg 54%
    12:00 +22°C° 0 mm 8 mps 741 mmHg 49%
    13:00 +23°C° 0 mm 8 mps 741 mmHg 49%
    14:00 +23°C° 0 mm 8 mps 740 mmHg 49%
    15:00 +24°C° 0 mm 8 mps 739 mmHg 49%
    16:00 +21°C° 1.4 mm 8 mps 738 mmHg 61%
    17:00 +18°C° 1.4 mm 8 mps 738 mmHg 73%
    18:00 +16°C° 1.4 mm 7 mps 737 mmHg 85%
    19:00 +15°C° 0.6 mm 7 mps 737 mmHg 85%
    20:00 +12°C° 0.6 mm 7 mps 737 mmHg 85%
    21:00 +11°C° 0.6 mm 7 mps 737 mmHg 86%
    22:00 +10°C° 0 mm 7 mps 738 mmHg 85%
    23:00 +9°C° 0 mm 6 mps 738 mmHg 85%

    31 May, Thursday

    Time Temperature Precipitation Wind Pressure Humidity
    00:00 +8°C° 0 mm 6 mps 739 mmHg 85%
    01:00 +7°C° 0 mm 6 mps 739 mmHg 84%
    02:00 +5°C° 0 mm 6 mps 739 mmHg 83%
    03:00 +4°C° 0 mm 6 mps 739 mmHg 82%
    04:00 +5°C° 0 mm 7 mps 740 mmHg 79%
    05:00 +5°C° 0 mm 7 mps 740 mmHg 75%
    06:00 +6°C° 0 mm 8 mps 740 mmHg 71%
    07:00 +6°C° 0 mm 8 mps 741 mmHg 70%
    08:00 +6°C° 0 mm 8 mps 742 mmHg 68%
    09:00 +6°C° 0 mm 8 mps 742 mmHg 66%
    10:00 +6°C° 0.1 mm 8 mps 743 mmHg 66%
    11:00 +7°C° 0.1 mm 8 mps 744 mmHg 65%
    12:00 +8°C° 0.1 mm 7 mps 744 mmHg 64%
    13:00 +8°C° 0.1 mm 7 mps 745 mmHg 63%
    14:00 +9°C° 0.1 mm 7 mps 746 mmHg 61%
    15:00 +9°C° 0.1 mm 6 mps 746 mmHg 59%
    16:00 +9°C° 0 mm 6 mps 746 mmHg 59%
    17:00 +9°C° 0 mm 5 mps 747 mmHg 59%
    18:00 +10°C° 0 mm 4 mps 747 mmHg 59%
    19:00 +7°C° 0 mm 4 mps 748 mmHg 64%
    20:00 +7°C° 0 mm 3 mps 748 mmHg 69%
    21:00 +5°C° 0 mm 2 mps 749 mmHg 73%
    22:00 +4°C° 0 mm 2 mps 749 mmHg 74%
    23:00 +4°C° 0 mm 2 mps 749 mmHg 75%

    1 June, Friday

    Time Temperature Precipitation Wind Pressure Humidity
    00:00 +3°C° 0 mm 2 mps 750 mmHg 75%
    01:00 +3°C° 0 mm 2 mps 750 mmHg 76%
    02:00 +2°C° 0 mm 2 mps 750 mmHg 76%
    03:00 +2°C° 0 mm 2 mps 751 mmHg 77%
    04:00 +3°C° 0 mm 2 mps 751 mmHg 73%
    05:00 +4°C° 0 mm 2 mps 751 mmHg 69%
    06:00 +5°C° 0 mm 2 mps 751 mmHg 65%
    07:00 +7°C° 0 mm 2 mps 751 mmHg 59%
    08:00 +8°C° 0 mm 3 mps 752 mmHg 53%
    09:00 +9°C° 0 mm 3 mps 752 mmHg 48%
    10:00 +10°C° 0 mm 3 mps 752 mmHg 47%
    11:00 +10°C° 0 mm 3 mps 752 mmHg 47%
    12:00 +10°C° 0 mm 3 mps 752 mmHg 47%
    13:00 +10°C° 0 mm 3 mps 752 mmHg 48%
    14:00 +10°C° 0 mm 3 mps 752 mmHg 48%
    15:00 +10°C° 0 mm 3 mps 752 mmHg 49%
    16:00 +10°C° 0 mm 3 mps 752 mmHg 52%
    17:00 +9°C° 0 mm 3 mps 752 mmHg 55%
    18:00 +9°C° 0 mm 3 mps 752 mmHg 58%
    19:00 +8°C° 0 mm 3 mps 752 mmHg 61%
    20:00 +7°C° 0 mm 3 mps 752 mmHg 63%
    21:00 +5°C° 0 mm 3 mps 753 mmHg 66%
    22:00 +4°C° 0 mm 3 mps 753 mmHg 66%
    23:00 +3°C° 0 mm 3 mps 753 mmHg 67%
    Show more